[Iaude] MPEC M92: 2018 BE92 [a=1.98,e=0.36,i=4.7,H=22.5]
    mpec at cfa.harvard.edu 
    mpec at cfa.harvard.edu
       
    Thu Jun 27 06:55:37 EDT 2024
    
    
  
M.P.E.C. 2024-M92                                 Issued 2024 June 27, 10:54 UT
     The Minor Planet Electronic Circulars contain information on unusual
         minor planets, routine data on comets and natural satellites,
         and occasional editorial announcements.  They are published
    on behalf of Division F of the International Astronomical Union by the
          Minor Planet Center, Smithsonian Astrophysical Observatory,
                          Cambridge, MA 02138, U.S.A.
			  
             Prepared using the Tamkin Foundation Computer Network
                              MPC at CFA.HARVARD.EDU
            URL https://www.minorplanetcenter.net/    ISSN 1523-6714
                                   2018 BE92                                    
Observations:
     K18B92E*|C2018 01 23.21843009 03 30.435+18 15 54.71         22.22iVEM092W84
     K18B92E |C2018 01 23.21904309 03 30.376+18 15 54.68         22.11iVEM092W84
     K18B92E |C2018 01 23.30460609 03 22.740+18 15 37.66         22.46iVEM092W84
     K18B92E |C2018 01 24.29249609 02 00.954+18 12 27.54         22.35gVEM092W84
     K18B92E |C2018 01 25.22530309 00 44.252+18 09 30.26         21.78iVEM092W84
     K18B92E |C2018 01 25.24351709 00 42.618+18 09 26.67         21.95iVEM092W84
     K18B92E |C2018 01 25.28021109 00 39.359+18 09 19.46         22.59gVEM092W84
     K18B92E |C2018 01 25.29851509 00 37.719+18 09 15.89         22.26gVEM092W84
     K18B92E |C2018 01 27.28189508 57 55.039+18 03 02.76         22.03iVEM092W84
Observer details:
W84 Cerro Tololo-DECam.  Observer D. E. Survey.  Measurers J. Moeyens, M.
    Juric, S. Nelson, A. Koumjian, K. Kiker, N. Tellis, D. Veronese-Milin, A.
    Posner, E. Lu, C. Fiaschetti, D. Remy.  4.0-m Reflector + CCD.
Orbital elements:
2018 BE92                                                Earth MOID = 0.2872 AU
Epoch 2024 Mar. 31.0 TT = JDT 2460400.5                 Veres                   
M 112.38229              (2000.0)            P               Q                  
n   0.35480520     Peri.  110.69603     +0.45704938     -0.88738034             
a   1.9761022      Node   311.95838     +0.78277099     +0.43361027             
e   0.3620504      Incl.    4.66772     +0.42234517     +0.15664698             
P   2.78           H   22.55          G   0.15           U   9                  
Residuals in seconds of arc
180123 W84  0.0   0.0     180124 W84  0.1-  0.1-    180125 W84  0.1+  0.1-
180123 W84  0.1-  0.1+    180125 W84  0.1+  0.1+    180125 W84  0.1-  0.1+
180123 W84  0.1+  0.1+    180125 W84  0.0   0.0     180127 W84  0.0   0.1+
Ephemeris:
2018 BE92                a,e,i = 1.98, 0.36, 5                   q = 1.2607
Date    TT    R. A. (2000) Decl.     Delta      r    Elong.  Phase     V
2024 05 28    13 10 34.7 -14 53 18   1.7452  2.5614   134.7    16.3    26.7
...
2024 06 12    13 08 45.3 -14 04 53   1.9297  2.5892   119.8    19.9    27.0
...
2024 06 20    13 10 14.2 -13 54 03   2.0383  2.6027   112.5    21.1    27.2
...
2024 06 26    13 12 19.7 -13 52 18   2.1229  2.6121   107.3    21.8    27.3
2024 06 27    13 12 45.2 -13 52 31   2.1372  2.6137   106.4    21.9    27.3
2024 06 28    13 13 11.9 -13 52 52   2.1516  2.6152   105.6    22.0    27.4
...
2024 07 04    13 16 17.5 -13 57 47   2.2385  2.6240   100.6    22.4    27.5
...
2024 07 12    13 21 27.5 -14 11 23   2.3559  2.6348    94.3    22.6    27.6
...
2024 07 27    13 33 52.9 -14 54 59   2.5757  2.6526    83.1    22.3    27.8
M. P. C. Staff               (C) Copyright 2024 MPC           M.P.E.C. 2024-M92
    
    
More information about the Iaude
mailing list